STARLINK-11205, 60313

Orbit data source: Space-Track

STARLINK-11205, 60313 is a payload satellite owned by SpaceX/Seattle (US) in LEO that was launched on Sun, 28 Jul 2024 UTC via an FALCON 9 launch vehicle from the Air Force Western Test Range (AFWTR). Payload-class satellites include a variety of spacecraft equipped with specific instruments for various scientific and technological missions. These include communications satellites like Starlink; space stations such as the ISS; scientific satellites like the Hubble; Earth observation satellites from companies like Planet Labs, Umbra, and HawkEye 360; GPS; miniature CubeSats for education and research; and military/defense satellites.

Loading next visibility...
Identifier
60313, 2024-133N
Orbit
LEO
Country
Flag of USUS
Related business
Manufacturer
SpaceX/Seattle
Mission
Operational Commercial Communications
Bus & Motor
STARLINK V2MD, Unknown motor
Mass
960 kg wet, ~910 kg dry
Launch date (UTC)
2024-07-28 (2 years ago)
Launch vehicle
FALCON 9
Launch site
Air Force Western Test Range (AFWTR)
Object type
Payload
Rocket body
Debris
Shape & HBR
Box + 2 Pan, 18.1 m
Radar Cross Section
36.964 m², Large (>1 m²)

Expand to show TLE details & history
Last TLE update: 1 day ago

TLE from 1 day ago
0 STARLINK-11205
1 60313U 24133N   26170.83608678  .00000177  00000-0  63187-5 0  9993
2 60313  53.1598   2.9439 0000973  81.1283 278.9846 15.69712316109774
Epoch: 2026-06-19T20:03Z
TLE epoch observation values (Epoch: 2026-06-19T20:03:57.897Z)
Latitude
0.00004°
Longitude
153.89334°
Altitude
360.533 km
Speed
7.694 km/s
True Right ascension
00h 11m 46s
True Declination
0° 00' 00"
Sunlit
Object was in daylight at epoch
Visualization orbit readout
Latitude
Unknown
Longitude
Unknown
Altitude
Unknown
Speed
Unknown
Apparent Right ascension
Unknown
Apparent Declination
Unknown
Sunlit
N/A
Visualization observer readout
Local Sidereal Time
07:12:57
Azimuth
Unknown
Elevation
Unknown
Doppler factor
Unknown
Orbital elements
Apogee altitude
360.636 km
Perigee altitude
359.325 km
Semi-major axis
6,738.118 km
Eccentricity
0.0001
Inclination
53.1598°
RAAN
2.9439°
Arg. of periapsis
81.1283°
True anomaly
278.97359°
Mean anomaly
278.9846°
Eccentric anomaly
278.97909°
Mean motion
3.92406 °/min
Orbital period
91.74 mins
BSTAR
0.0000063187
Loading maneuver chart data...
Computing Atmospheric mass density...
Loading historical data...
Loading historical data...
Loading historical data...
Loading historical data...
Loading historical data...
Loading historical data...
Loading historical data...

Documentation

Showing up to 5 results
|